Brigham City, UT

11:42 AM MST on December 15, 2019 (GMT -0700)
Brigham City

Weather History for KBMC - August, 2019

Change the Weather History Date:

Thursday, August 22, 2019

  Actual Average (WUND) Record (WUND)
Temperature  
Mean Temperature 74 °F -  
Max Temperature 87 °F - - (-1)
Min Temperature 60 °F - - (-1)
Cooling Degree Days 8    
Growing Degree Days 24 (Base 50)    
Moisture  
Dew Point 36 °F    
Average Humidity 30    
Maximum Humidity 57    
Minimum Humidity 10    
Precipitation  
Precipitation 0.00 in - - ()
Sea Level Pressure  
Sea Level Pressure 29.85 in    
Wind  
Wind Speed 4 mph ()    
Max Wind Speed 23 mph    
Max Gust Speed 29 mph    
Visibility 10.0 miles    
Events      
Averages and records for this station are not official NWS values.
T = Trace of Precipitation, MM = Missing Value Source: Averaged Metar Reports

Daily Weather History Graph

Daily Weather History Graph

Search for Another Location

Airport or City:

Astronomy

Aug. 22, 2019 Rise Set
Actual Time 6:44 AM MDT 8:17 PM MDT
Civil Twilight 6:14 AM MDT 8:46 PM MDT
Nautical Twilight 5:39 AM MDT 9:21 PM MDT
Astronomical Twilight 5:01 AM MDT 9:59 PM MDT
Moon No Moon Rise 1:28 PM MDT (8/22)
Length of Visible Light 14h 31m
Length of Day
13h 33m
Waning Gibbous, 59% of the Moon is Illuminated
Aug 22
Waning Gibbous
Aug 23
Last Quarter
Aug 30
New
Sep 5
First Quarter
Sep 13
Full

Hourly Weather History & Observations

Time (MDT) Temp. Dew Point Humidity Pressure Visibility Wind Dir Wind Speed Gust Speed Precip Events Conditions
12:10 AM 67.3 °F 43.2 °F 42% 29.86 in 10.0 mi Calm Calm - N/A   Clear
12:30 AM 67.3 °F 42.8 °F 41% 29.86 in 10.0 mi Calm Calm - N/A   Clear
12:50 AM 66.9 °F 42.3 °F 41% 29.86 in 10.0 mi Calm Calm - N/A   Clear
1:10 AM 65.8 °F 43.5 °F 44% 29.85 in 10.0 mi Calm Calm - N/A   Clear
1:30 AM 61.5 °F 44.2 °F 53% 29.85 in 10.0 mi Calm Calm - N/A   Clear
1:50 AM 63.3 °F 44.1 °F 49% 29.84 in 10.0 mi Calm Calm - N/A   Clear
2:10 AM 65.1 °F 43.3 °F 45% 29.84 in 10.0 mi Calm Calm - N/A   Clear
2:30 AM 64.6 °F 43.5 °F 46% 29.84 in 10.0 mi Calm Calm - N/A   Clear
2:50 AM 63.3 °F 45.5 °F 52% 29.83 in 10.0 mi NE 5.8 mph - N/A   Clear
3:10 AM 61.3 °F 45.9 °F 57% 29.82 in 10.0 mi NNW 4.6 mph - N/A   Clear
3:50 AM 61.0 °F 45.3 °F 56% 29.83 in 10.0 mi Calm Calm - N/A   Clear
4:10 AM 60.8 °F 45.0 °F 56% 29.83 in 10.0 mi SW 6.9 mph - N/A   Clear
4:30 AM 60.8 °F 44.1 °F 54% 29.83 in 10.0 mi East 4.6 mph - N/A   Clear
4:50 AM 62.1 °F 43.5 °F 51% 29.82 in 10.0 mi SSE 3.5 mph - N/A   Clear
5:10 AM 63.7 °F 45.3 °F 51% 29.82 in 10.0 mi Calm Calm - N/A   Clear
5:30 AM 62.4 °F 46.6 °F 56% 29.83 in 10.0 mi NW 4.6 mph - N/A   Clear
5:50 AM 60.3 °F 45.1 °F 57% 29.84 in 10.0 mi North 4.6 mph - N/A   Clear
6:10 AM 61.3 °F 43.3 °F 52% 29.85 in 10.0 mi NNE 3.5 mph - N/A   Clear
6:30 AM 61.5 °F 45.1 °F 55% 29.85 in 10.0 mi Calm Calm - N/A   Clear
6:50 AM 61.7 °F 44.4 °F 53% 29.85 in 10.0 mi Calm Calm - N/A   Clear
7:10 AM 62.6 °F 44.8 °F 52% 29.84 in 10.0 mi NNW 3.5 mph - N/A   Clear
7:30 AM 61.9 °F 44.8 °F 53% 29.83 in 10.0 mi NW 5.8 mph - N/A   Clear
7:50 AM 61.7 °F 44.1 °F 52% 29.84 in 10.0 mi Calm Calm - N/A   Clear
8:10 AM 63.9 °F 42.1 °F 45% 29.86 in 10.0 mi NNE 6.9 mph - N/A   Clear
8:30 AM 65.1 °F 40.8 °F 41% 29.84 in 10.0 mi NE 3.5 mph - N/A   Clear
8:50 AM 66.4 °F 40.3 °F 38% 29.85 in 10.0 mi WSW 6.9 mph - N/A   Clear
9:10 AM 67.1 °F 40.6 °F 38% 29.85 in 10.0 mi North 5.8 mph - N/A   Clear
9:30 AM 67.3 °F 41.4 °F 39% 29.84 in 10.0 mi WNW 8.1 mph - N/A   Clear
9:50 AM 67.6 °F 41.9 °F 39% 29.86 in 10.0 mi WNW 6.9 mph - N/A   Clear
10:10 AM 68.4 °F 40.8 °F 37% 29.89 in 10.0 mi NNW 3.5 mph - N/A   Clear
10:30 AM 73.0 °F 37.2 °F 27% 29.88 in 10.0 mi Calm Calm - N/A   Clear
10:50 AM 76.5 °F 38.7 °F 26% 29.88 in 10.0 mi ESE 4.6 mph - N/A   Clear
11:10 AM 80.2 °F 30.0 °F 16% 29.86 in 10.0 mi Calm Calm - N/A   Clear
11:50 AM 83.5 °F 23.7 °F 11% 29.87 in 10.0 mi West 3.5 mph - N/A   Clear
12:10 PM 83.7 °F 25.9 °F 12% 29.87 in 10.0 mi NNW 3.5 mph - N/A   Clear
12:30 PM 84.4 °F 25.2 °F 12% 29.88 in 10.0 mi Calm Calm - N/A   Clear
12:50 PM 85.8 °F 25.0 °F 11% 29.87 in 10.0 mi West 4.6 mph - N/A   Clear
1:10 PM 85.3 °F 23.5 °F 10% 29.86 in 10.0 mi Calm Calm - N/A   Clear
1:30 PM 84.9 °F 24.6 °F 11% 29.84 in 10.0 mi East 5.8 mph - N/A   Scattered Clouds
1:50 PM 86.9 °F 26.6 °F 11% 29.86 in 10.0 mi WNW 13.8 mph - N/A   Clear
2:10 PM 87.3 °F 27.0 °F 11% 29.86 in 10.0 mi WNW 9.2 mph - N/A   Clear
2:50 PM 86.5 °F 27.3 °F 12% 29.86 in 10.0 mi NW 6.9 mph - N/A   Clear
3:10 PM 86.4 °F 26.2 °F 11% 29.86 in 10.0 mi NW 5.8 mph - N/A   Clear
3:30 PM 86.9 °F 26.4 °F 11% 29.85 in 10.0 mi North 3.5 mph - N/A   Clear
3:50 PM 87.3 °F 27.9 °F 12% 29.85 in 10.0 mi NW 6.9 mph - N/A   Clear
4:10 PM 86.9 °F 29.1 °F 12% 29.84 in 10.0 mi NNW 11.5 mph - N/A   Clear
4:30 PM 86.5 °F 29.5 °F 13% 29.85 in 10.0 mi WNW 5.8 mph - N/A   Clear
4:50 PM 86.4 °F 30.2 °F 13% 29.84 in 10.0 mi NW 5.8 mph - N/A   Clear
5:10 PM 86.0 °F 31.1 °F 14% 29.84 in 10.0 mi NW 6.9 mph - N/A   Clear
5:30 PM 85.5 °F 33.4 °F 16% 29.84 in 10.0 mi NNW 8.1 mph - N/A   Clear
5:50 PM 85.5 °F 34.5 °F 16% 29.84 in 10.0 mi North 8.1 mph - N/A   Clear
6:10 PM 85.6 °F 32.0 °F 15% 29.84 in 10.0 mi NNW 5.8 mph - N/A   Clear
6:30 PM 85.6 °F 31.8 °F 14% 29.84 in 10.0 mi North 6.9 mph - N/A   Clear
6:50 PM 85.8 °F 30.0 °F 13% 29.84 in 10.0 mi NNW 5.8 mph - N/A   Clear
7:10 PM 85.3 °F 30.7 °F 14% 29.84 in 10.0 mi NNW 5.8 mph - N/A   Clear
7:30 PM 83.7 °F 34.2 °F 17% 29.84 in 10.0 mi NW 5.8 mph - N/A   Clear
7:50 PM 81.9 °F 36.1 °F 19% 29.84 in 10.0 mi NNW 4.6 mph - N/A   Clear
8:10 PM 79.7 °F 38.5 °F 23% 29.84 in 10.0 mi NNW 12.7 mph - N/A   Clear
8:30 PM 77.4 °F 40.3 °F 26% 29.84 in 10.0 mi NNW 15.0 mph 18.4 mph N/A   Clear
8:50 PM 77.4 °F 39.0 °F 25% 29.85 in 10.0 mi NNW 19.6 mph 25.3 mph N/A   Clear
9:10 PM 77.0 °F 37.4 °F 24% 29.86 in 10.0 mi NNW 18.4 mph 25.3 mph N/A   Clear
9:30 PM 76.6 °F 36.0 °F 23% 29.87 in 10.0 mi NNW 17.3 mph 20.7 mph N/A   Clear
9:50 PM 76.1 °F 36.0 °F 23% 29.88 in 10.0 mi NNW 20.7 mph 24.2 mph N/A   Clear
10:10 PM 75.9 °F 36.7 °F 24% 29.89 in 10.0 mi North 12.7 mph - N/A   Clear
10:30 PM 76.1 °F 35.4 °F 23% 29.90 in 10.0 mi NNW 16.1 mph 23.0 mph N/A   Clear
10:50 PM 75.0 °F 29.1 °F 18% 29.90 in 10.0 mi NNW 23.0 mph 28.8 mph N/A   Clear
11:15 PM 74.3 °F 23.9 °F 15% 29.91 in 10.0 mi NNW 16.1 mph - N/A   Clear
11:30 PM 73.4 °F 25.2 °F 17% 29.91 in 10.0 mi NNW 15.0 mph 20.7 mph N/A   Clear
11:50 PM 73.0 °F 24.3 °F 16% 29.92 in 10.0 mi North 8.1 mph - N/A   Clear